Погода Первомайское

Погода Первомайское : погода сейчас, прогноз погоды и архив. Всё, что Вы хотите узнать о погоде Первомайское!

Хотите узнать прогноз погоды Первомайское? Тогда Вам сюда: Погода Первомайское

Поиск расширенной информации на нашем сайте:

Другие новости

Новости СМИ2

Главная страница сайта

Новости сайта

02.10.2013

Напоминаем, что на нашем новом сайте вы можете получить высокодетализированные прогнозы погоды по пунктам России, СНГ и мира (включающие важные для авиации метеовеличины, такие как направление и скорость ветра, видимость, явления погоды, количество и форма облачности, нижняя и верхняя граница облачности), а также ознакомиться с разнообразными материалами по авиационной метеорологии и подборкой полезных ссылок на эту тему.

Сайт Метеоцентр.Азия посвящён разработке технологий оптимизации авиаметеорологического обслуживания, включая проектирование и перспективное создание нескольких автоматизированных авиаметеорологических систем:
- система выпуска высокодетальных прогностических карт явлений погоды для нижнего воздушного пространства по России и ближнему зарубежью;
- система верификации прогнозов TAF (выпускаемых синоптиками официальных АМСГ РФ и ближнего зарубежья) и AUTOTAF (выпускаемых сайтом Метеоцентр.Азия) - выявление ошибок, онлайн-сопоставление с фактической погодой METAR, автоматическое внесение коррективов в прогнозы при резком отклонении фактической погоды от прогноза, подсчёт оправдываемости прогнозов по элементам и в целом;
- система обработки, анализа и отображения авиаметеорологической информации для применения провайдерами метеорологической информации.

Рекомендуем: Грунтовка для дерева pinotex base пинотекс бейс.

Погода Первомайское - сегодня

Время (UTC), дата Ветер
(°,м/с) 
Видим.   Явления Облачность Т
(°С)
Тd
(°С)
f(%) Тe
(°С)
Pmin
(гПа)
dP
(гПа)
Po
(мм)
O2
(г/м3)
Тmin Tmax R s Состояние
почвы
12 26.04.17 160 (Ю) 10 км    10/0 верхняя 
[Cs]
+21.4 +1.2 26 +21  1019.3  -2.1  755  282    +22.6       
15 26.04.17 130 (ЮВ) 10 км    10/0 верхняя 
[Cs]
+15.2 +2.2 41 +17  1018.2  -1.4  753  287           
18 26.04.17 080 (В) 10 км    ясно 
+9.5 +2.7 62 +11  1016.9  -1.6  752  293           
21 26.04.17 110 (В) 10 км    ясно 
+8.3 +1.9 64 +9  1015.2  -1.7  751  293           
00 27.04.17 160 (Ю) 4000 м  дым  4/0 верхняя 
[Ci fib]
+8.6 +2.1 64 +9  1013.8  -1.4  750  293  +6         
03 27.04.17 150 (ЮВ) 10 км    6/0 верхняя 
[Ci fib]
+18.5 +2.8 35 +19  1012.2  -1.1  749  282           
06 27.04.17 190 (Ю) 5{10}  10 км    9/0 верхняя 
[Ci fib]
+25.3 +0.5 20 +25  1010  -1.9  748  276           
09 27.04.17 210 (ЮЗ) 5{10}  10 км    9/0 верхняя 
[Ci fib]
+27 -2.8 14 +27  1008.4  -1.5  747  274           
12 27.04.17 200 (Ю) 5{12}  10 км    10/0 верхняя 
[Cs]
+27.2 -3.9 13 +27  1006.8  -1.5  745  274    +27.9       
15 27.04.17 310 (СЗ) 10 км    6/0 средняя, верхняя 
[Ac trans|Cs]
+21.8 +0.8 25 +22  1008.5  1.4  746  278           
18 27.04.17 310 (СЗ) 3{10}  10 км    8/0 средняя, верхняя 
[Ac trans|Cs]
+13.4 +6.1 61 +13  1013.1  4.2  750  287           
21 27.04.17 310 (СЗ) 10 км    10/0 средняя 
[Ac As]
+9.1 +4.9 75 +9  1016.3  2.9  752  292           
00 28.04.17 340 (С) 10 км    10/0 средняя 
[Ac As]
+5.2 +2.2 81 +4  1019.7  3.1  754  298  +5.2         
03 28.04.17 360 (С) 10 км    8/4 600 м верхняя 
[Sc|Cs]
+5.9 +0.7 69 +6  1021.2  1.6  755  298  +4.8         
06 28.04.17 350 (С) 10 км    10/0 верхняя 
[Cs]
+9.8 +0.8 53 +11  1020.8  -0.2  755  294           
09 28.04.17 050 (СВ) 10 км    10/0 верхняя 
[Cs]
+12.2 +0.9 46 +13  1019.2  -1.5  754  291           
12 28.04.17 220 (ЮЗ) 10 км    9/0 средняя, верхняя 
[Ac trans|Cs]
+11.9 +1 47 +13  1017.5  -1.7  753  290    +13       
15 28.04.17 тихо ()   10 км    9/0 средняя 
[Ac lent]
+9.6 +1.6 57 +10  1017.3  -0.3  753  293           
18 28.04.17 230 (ЮЗ) 10 км    10/0 средняя 
[Ac As]
+8 +2 66 +8  1016.7  -0.7  752  294           
21 28.04.17 250 (З) 10 км    3/0 средняя 
[Ac trans]
+5.1 +0.9 74 +6  1016.5  -0.3  752  297           
00 29.04.17 190 (Ю) 10 км    ясно 
+4 +1.3 83 +4  1015.7  -0.8  751  298  +3.4         
03 29.04.17 190 (Ю) 5-10{10}  10 км    3/0 верхняя 
[Ci fib]
+11.8 -0.8 42 +11  1013.4  -2  750  290           
06 29.04.17 200 (Ю) 7-12{13}  10 км    3/0 средняя 
[Ac lent]
+16.8 +0.4 33 +16  1010.3  -2.7  748  284           
09 29.04.17 210 (ЮЗ) 7-13{16}  4000 м  дым  9/8 1000 м средняя 
[Sc|Ac trans]
+17.9 +0.3 30 +18  1007.4  -2.9  746  282           
12 29.04.17 300 (СЗ) 2{16}  10 км  слаб. ливневой дождь  10/10 600 м кучево-дожд. 
[Cb cap]
+4.8 +3.4 91 +4  1013.1  5.1  749  296    +18.5     
Время (UTC), дата Ветер
(°,м/с) 
Видим.   Явления Облачность Т
(°С)
Тd
(°С)
f(%) Тe
(°С)
Pmin
(гПа)
dP
(гПа)
Po
(мм)
O2
(г/м3)
Тmin Tmax R s Состояние
почвы

Для получения пояснительной информации подведите курсор к названию столбца.

ПОГОДА Первомайское - архив

Всё, что Вы хотите узнать о погоде Первомайское - удобно и подробно!

Выберите нужную дату (начиная с 1 января 2015* года) и нажмите кнопку "Найти".
Будут отображены архивные сводки погоды по пункту Первомайское, начиная с указанной даты.


Отображать данные в формате CSV (для использования в таблицах Excel)


Внимание! Наш архив погоды предназначен исключительно для личного некоммерческого использования в познавательных целях. Если Вам необходимы официальные справки о состоянии погоды (для производственных, юридических, коммерческих и т.п. целей), обращайтесь в органы Росгидромета.

*Примечание: данная дата относится к архиву по метеостанциям СССР (Россия, СНГ, Балтия).
Архив по метеостанциям Зарубежной Европы и Азии (кроме Китая) хранится 10 дней, по другим регионам земного шара (Китай, Африка, Америка, Австралия, Океания) - 1 день.

Первомайское - район местоположения метеостанции


Название, широта, долгота, высота метеостанции:
Первомайское 57.1°ш. 86.2°д. 114 м над ур. моря [Российская Федерация]

Дополнительная информация

В oтличие oт бoльшинства пoгoдных сайтoв мы публикуем пoдрoбную метеoинфoрмацию в детальнoм прoфессиoнальнoм фoрмате.

Характеристики температуры и влажнoсти вoздуха измеряются на высoте 2 м в тени вдали oт зданий и деревьев.
Скoрoсть ветра измеряется на высoте 10 м (на урoвне рoста челoвека скoрoсть ветра ниже в 1.5-2 раза). Если метеoстанция нахoдится в гoрoде или в лесу, тo скoрoсть ветра занижена на 2-4 м/с пo сравнению с oткрытым местoм. Скoрoсть ветра над акватoриями крупных рек и oзёр, а также на вершинах хoлмoв на 2-5 м/с выше, чем в oбычных услoвиях.
Атмoсфернoе давление в разных тoчках местнoсти мoжет значительнo oтличаться oт давления на метеoстанции, в зависимoсти oт услoвий рельефа (при пoдъёме на 10 м давление пoнижается примернo на 1 мм рт.ст.).